Date String (YYYY-MM-DD hh:mm:ss) UTC,Instrument flags,absolute air pressure of the measurement (hPa),sample flow rate (lpm),inlet stack bypass flow (lpm),air temperature of the measurement (°C),ambient temperature measured by the external sensor (°C),aerosol sample conditioner tube jacket temperature (°C),OPC LED temperature (°C),internal box temperature (°C),relative humidity of the measurement (%),span deviation,mass concentration of particles derived from Lorenz-Mie calculation of OPC scattering (μg/m³),mass concentration of particles derived from Lorenz-Mie calculation of OPC scattering (μg/m³),mass concentration of particles derived from Lorenz-Mie calculation of OPC scattering (μg/m³)
DateTimeUTC,F1_M11,P_M11,Q1_M11,Q2_M11,T1_M11,T2_M11,T3_M11,T4_M11,T5_M11,U1_M11,ZSPAN_M11,X2_M11,X0_M11,X1_M11
2023-06-24 12:00:00,SystemResetWarning,0829.4,5.00,000.00,030.1,028.5,000.0,038.8,031.5,8.5,0003.7,0005.50,0016.74,0004.13
2023-06-24 12:01:00,SystemResetWarning,0829.4,5.00,000.00,030.1,028.5,000.0,038.8,031.5,8.6,0003.6,0005.49,0016.51,0004.13
2023-06-24 12:02:00,SystemResetWarning,0829.4,5.00,000.00,030.1,028.5,000.0,038.8,031.5,8.2,0003.5,0005.52,0016.04,0004.14
2023-06-24 12:03:00,SystemResetWarning,0829.3,4.99,000.00,030.1,028.5,000.0,038.8,031.5,8.1,0003.4,0005.51,0015.90,0004.13
2023-06-24 12:04:00,SystemResetWarning,0829.4,5.00,000.00,030.1,028.5,000.0,038.8,031.5,8.3,0003.0,0005.48,0015.89,0004.13
2023-06-24 12:05:00,SystemResetWarning,0829.3,5.00,000.00,030.1,028.5,000.0,038.8,031.6,8.3,0003.0,0005.49,0014.98,0004.13
2023-06-24 12:06:00,SystemResetWarning,0829.3,5.00,000.00,030.2,028.5,000.0,038.8,031.6,8.5,0002.7,0005.46,0015.01,0004.14
2023-06-24 12:07:00,SystemResetWarning,0829.3,5.00,000.00,030.2,028.5,000.0,038.8,031.6,8.6,0001.1,0005.48,0014.77,0004.14
2023-06-24 12:08:00,SystemResetWarning,0829.4,5.00,000.00,030.2,028.5,000.0,038.8,031.6,8.7,0000.0,0005.55,0014.91,0004.15
2023-06-24 12:09:00,SystemResetWarning,0829.4,5.00,000.00,030.2,028.5,000.0,038.8,031.6,8.8,0000.0,0005.58,0015.16,0004.14
2023-06-24 12:10:00,SystemResetWarning,0829.3,5.00,000.00,030.2,028.5,000.0,038.8,031.6,8.9,0000.0,0005.62,0015.62,0004.14
2023-06-24 12:11:00,SystemResetWarning,0829.3,5.00,000.00,030.2,028.6,000.0,038.8,031.6,9.3,0000.0,0005.65,0015.64,0004.14
2023-06-24 12:12:00,SystemResetWarning,0829.4,5.00,000.00,030.2,028.6,000.0,038.8,031.6,9.4,0000.0,0005.65,0015.33,0004.13
2023-06-24 12:13:00,SystemResetWarning,0829.5,5.00,000.00,030.2,028.6,000.0,038.8,031.6,9.3,0000.0,0005.65,0015.32,0004.15
2023-06-24 12:14:00,SystemResetWarning,0829.6,5.00,000.00,030.2,028.6,000.0,038.8,031.6,9.2,0000.0,0005.60,0015.13,0004.14
2023-06-24 12:15:00,SystemResetWarning,0829.6,5.00,000.00,030.2,028.6,000.0,038.8,031.7,9.0,0000.0,0005.55,0015.06,0004.13
2023-06-24 12:16:00,SystemResetWarning,0829.6,5.00,000.00,030.2,028.6,000.0,038.8,031.7,9.1,0000.0,0005.54,0015.45,0004.13
2023-06-24 12:17:00,SystemResetWarning,0829.5,5.00,000.00,030.2,028.6,000.0,038.8,031.7,8.9,0000.7,0005.54,0014.59,0004.12
2023-06-24 12:18:00,SystemResetWarning,0829.5,5.00,000.00,030.2,028.6,000.0,038.8,031.7,8.9,0002.7,0005.55,0015.69,0004.13
2023-06-24 12:19:00,SystemResetWarning,0829.5,5.00,000.00,030.2,028.6,000.0,038.8,031.6,8.8,0004.2,0005.48,0016.40,0004.12
2023-06-24 12:20:00,SystemResetWarning,0829.5,5.00,000.00,030.2,028.6,000.0,038.8,031.7,8.7,0003.6,0005.39,0016.24,0004.10
2023-06-24 12:21:00,SystemResetWarning,0829.5,5.00,000.00,030.2,028.6,000.0,038.8,031.7,8.5,0000.0,0005.33,0015.71,0004.09
2023-06-24 12:22:00,SystemResetWarning,0829.4,4.99,000.00,030.2,028.6,000.0,038.8,031.7,8.6,0000.0,0005.30,0015.10,0004.08
2023-06-24 12:23:00,SystemResetWarning,0829.4,5.00,000.00,030.2,028.6,000.0,038.8,031.6,8.8,0000.0,0005.30,0015.01,0004.09
2023-06-24 12:24:00,SystemResetWarning,0829.3,5.00,000.00,030.2,028.6,000.0,038.8,031.6,8.7,0000.0,0005.30,0015.10,0004.07
2023-06-24 12:25:00,SystemResetWarning,0829.4,5.00,000.00,030.2,028.5,000.0,038.8,031.6,9.1,0000.0,0005.35,0015.57,0004.08
2023-06-24 12:26:00,SystemResetWarning,0829.5,5.01,000.00,030.2,028.5,000.0,038.8,031.6,9.1,0000.0,0005.39,0016.87,0004.09
2023-06-24 12:27:00,SystemResetWarning,0829.5,5.00,000.00,030.2,028.5,000.0,038.8,031.6,8.9,0000.0,0005.38,0016.41,0004.09
2023-06-24 12:28:00,SystemResetWarning,0829.6,5.00,000.00,030.2,028.5,000.0,038.8,031.6,9.4,0000.0,0005.38,0016.64,0004.08
2023-06-24 12:29:00,SystemResetWarning,0829.5,5.01,000.00,030.2,028.5,000.0,038.8,031.6,9.5,0000.0,0005.35,0015.87,0004.06
2023-06-24 12:30:00,SystemResetWarning,0829.4,5.00,000.00,030.2,028.5,000.0,038.8,031.6,9.2,0000.0,0005.31,0015.13,0004.06
2023-06-24 12:31:00,SystemResetWarning,0829.5,5.00,000.00,030.2,028.5,000.0,038.8,031.6,9.0,0000.0,0005.36,0015.57,0004.07
2023-06-24 12:32:00,SystemResetWarning,0829.6,5.00,000.00,030.2,028.5,000.0,038.8,031.6,8.8,0000.0,0005.42,0016.56,0004.08
2023-06-24 12:33:00,SystemResetWarning,0829.6,5.00,000.00,030.2,028.6,000.0,038.8,031.7,9.1,0000.0,0005.42,0016.38,0004.07
2023-06-24 12:34:00,SystemResetWarning,0829.5,5.00,000.00,030.2,028.6,000.0,038.8,031.6,8.7,0000.0,0005.44,0016.56,0004.06
2023-06-24 12:35:00,SystemResetWarning,0829.4,4.99,000.00,030.2,028.6,000.0,038.8,031.7,8.6,0000.0,0005.42,0016.80,0004.04
2023-06-24 12:36:00,SystemResetWarning,0829.5,5.00,000.00,030.2,028.6,000.0,038.8,031.7,9.1,0000.0,0005.38,0016.58,0004.04
2023-06-24 12:37:00,SystemResetWarning,0829.6,5.01,000.00,030.2,028.6,000.0,038.8,031.7,9.3,0000.0,0005.33,0016.30,0004.03
2023-06-24 12:38:00,SystemResetWarning,0829.6,5.00,000.00,030.2,028.6,000.0,038.8,031.7,9.4,0000.0,0005.35,0016.50,0004.03
2023-06-24 12:39:00,SystemResetWarning,0829.6,5.00,000.00,030.2,028.6,000.0,038.8,031.7,9.3,0000.0,0005.37,0016.20,0004.04
2023-06-24 12:40:00,SystemResetWarning,0829.6,5.00,000.00,030.2,028.6,000.0,038.8,031.7,9.1,0000.0,0005.37,0017.72,0004.04
2023-06-24 12:41:00,SystemResetWarning,0829.5,5.00,000.00,030.2,028.6,000.0,038.8,031.7,9.0,0000.0,0005.44,0017.23,0004.05
2023-06-24 12:42:00,SystemResetWarning,0829.6,5.00,000.00,030.2,028.6,000.0,038.8,031.7,8.9,0000.0,0005.48,0016.87,0004.03
2023-06-24 12:43:00,SystemResetWarning,0829.6,5.00,000.00,030.3,028.6,000.0,038.8,031.7,8.8,0000.0,0005.50,0015.74,0004.04
2023-06-24 12:44:00,SystemResetWarning,0829.6,5.00,000.00,030.3,028.6,000.0,038.9,031.7,8.8,0000.0,0005.48,0015.51,0004.05
2023-06-24 12:45:00,SystemResetWarning,0829.5,5.01,000.00,030.3,028.6,000.0,038.9,031.7,8.8,0000.0,0005.49,0016.01,0004.06
2023-06-24 12:46:00,SystemResetWarning,0829.5,5.01,000.00,030.3,028.6,000.0,038.9,031.7,9.0,0000.0,0005.50,0015.95,0004.08
2023-06-24 12:47:00,SystemResetWarning,0829.5,5.00,000.00,030.3,028.6,000.0,038.9,031.7,9.4,0000.0,0005.56,0016.77,0004.07
2023-06-24 12:48:00,SystemResetWarning,0829.5,5.00,000.00,030.3,028.6,000.0,038.9,031.7,9.1,0000.0,0005.57,0016.54,0004.07
2023-06-24 12:49:00,SystemResetWarning,0829.6,5.01,000.00,030.2,028.6,000.0,038.9,031.7,9.4,0000.0,0005.61,0016.29,0004.05
2023-06-24 12:50:00,SystemResetWarning,0829.7,5.00,000.00,030.3,028.6,000.0,038.9,031.7,9.9,0000.0,0005.60,0017.37,0004.06
2023-06-24 12:51:00,SystemResetWarning,0829.5,5.00,000.00,030.3,028.6,000.0,038.9,031.6,10.0,0000.0,0005.63,0016.31,0004.07
2023-06-24 12:52:00,SystemResetWarning,0829.4,5.00,000.00,030.3,028.6,000.0,038.8,031.7,9.8,0000.0,0005.61,0016.20,0004.07
2023-06-24 12:53:00,SystemResetWarning,0829.5,5.00,000.00,030.3,028.6,000.0,038.9,031.7,8.8,0000.0,0005.54,0015.72,0004.07
2023-06-24 12:54:00,SystemResetWarning,0829.5,4.99,000.00,030.3,028.7,000.0,038.9,031.7,9.7,0000.0,0005.50,0015.60,0004.07
2023-06-24 12:55:00,SystemResetWarning,0829.5,5.00,000.00,030.3,028.7,000.0,038.9,031.8,9.6,0000.0,0005.57,0016.08,0004.07
2023-06-24 12:56:00,SystemResetWarning,0829.6,5.00,000.00,030.3,028.7,000.0,038.9,031.8,9.5,0000.0,0005.56,0015.65,0004.07
2023-06-24 12:57:00,SystemResetWarning,0829.7,5.00,000.00,030.3,028.7,000.0,038.9,031.7,9.4,0000.0,0005.58,0015.52,0004.07
2023-06-24 12:58:00,SystemResetWarning,0829.7,5.01,000.00,030.3,028.7,000.0,038.9,031.8,8.9,0000.0,0005.57,0014.90,0004.07
2023-06-24 12:59:00,SystemResetWarning,0829.7,5.01,000.00,030.3,028.7,000.0,038.9,031.8,9.4,0000.0,0005.58,0013.84,0004.08
